Home > Weather > St. Petersburg > Past weeks

Flag for USA Past Weather in St. Petersburg, Florida, USA — Yesterday and Last 2 Weeks

Now
75 °F

Sunny.


Feels Like: 77 °F
Forecast: 72 / 86 °F
Wind: 10 mph from Southeast

Location: Whitted Airport

Current Time: May 26, 2016 at 8:47:41 AM

Latest Report: May 26, 2016 at 7:53 AM


Visibility: 10 mi

Pressure: 30.14 "Hg

Humidity: 62%

Dew Point: 61 °F

Location of St. PetersburgLocation

Past Weather in St. Petersburg — Graph

°F

St. Petersburg Temperature Yesterday

Maximum temperature yesterday: 89 °F (at 2:53 PM)
Minimum temperature yesterday: 76 °F (at 3:53 AM)
Average temperature yesterday: 82 °F

High & Low Weather Summary for the Past Weeks

 TemperatureHumidityPressure
High89 °F (May 25, 2:53 PM)93% (May 20, 7:53 AM)30.19 "Hg (May 20, 7:53 AM)
Low72 °F (May 20, 11:53 PM)36% (May 24, 3:53 PM)29.88 "Hg (May 22, 5:53 PM)
Average80 °F68%30.02 "Hg
* Reported May 11 7:53 AM — May 26 7:53 AM, St. Petersburg, Weather by CustomWeather, © 2016

Note: Actual official high and low records may vary slightly from our data, if they occured in-between our weather recording intervals... More about our weather records

Advertising

St. Petersburg Weather History for the Previous 24 Hours

Scroll right to see more
 ConditionsComfort  
Time TempWeatherWind HumidityBarometerVisibility
7:53 AM
Thu, May 26
75 °FSunny.10 mph62%30.14 "Hg10 mi
6:53 AM74 °FClear.9 mph67%30.13 "Hg10 mi
5:53 AM74 °FClear.14 mph71%30.11 "Hg10 mi
4:53 AM75 °FClear.16 mph66%30.12 "Hg10 mi
3:53 AM75 °FClear.12 mph64%30.14 "Hg10 mi
2:53 AM76 °FClear.14 mph64%30.14 "Hg10 mi
1:53 AM76 °FClear.15 mph62%30.15 "Hg10 mi
12:53 AM77 °FClear.15 mph60%30.16 "Hg10 mi
11:53 PM
Wed, May 25
78 °FClear.17 mph56%30.17 "Hg10 mi
10:53 PM79 °FClear.20 mph54%30.15 "Hg10 mi
9:53 PM81 °FClear.18 mph51%30.14 "Hg10 mi
8:53 PM83 °FScattered clouds.15 mph46%30.13 "Hg10 mi
7:53 PM85 °FPartly sunny.14 mph46%30.12 "Hg10 mi
6:53 PM85 °FScattered clouds.14 mph51%30.11 "Hg10 mi
5:53 PM87 °FScattered clouds.12 mph50%30.11 "Hg10 mi
4:53 PM89 °FPassing clouds.10 mph46%30.11 "Hg10 mi
3:53 PM89 °FSunny.10 mph46%30.12 "Hg10 mi
2:53 PM89 °FSunny.9 mph48%30.13 "Hg10 mi
1:53 PM87 °FSunny.6 mph53%30.15 "Hg10 mi
12:53 PM86 °FSunny.5 mph53%30.18 "Hg10 mi
11:53 AM85 °FSunny.8 mph57%30.19 "Hg10 mi
10:53 AM83 °FSunny.12 mph61%30.18 "Hg10 mi
9:53 AM81 °FSunny.15 mph65%30.18 "Hg10 mi
8:53 AM79 °FSunny.17 mph67%30.17 "Hg10 mi
Weather by CustomWeather, © 2016

See weather overviewHow to use our weather pages